Flight Track Log - Related Links

Times and Time Zones

All times are in EDT time to prevent confusion due to time zone crossing. See the SWG26 flight status page for this flight to view local times or setup timezone preferences in your user account.

Time Position Orientation Groundspeed Altitude Reporting Facility
EDT Latitude Longitude Course Direction KTS MPH feet Rate Location/Type
Fri 06:44:28 AM 43.6623 -79.6213 224° Southwest 171 197 1,600  Level FlightAware ADS-B (CYYZ)
Fri 06:44:43 AM 43.6542 -79.6311 221° Southwest 156 180 2,800 4,200 Climbing FlightAware ADS-B (CYYZ)
Fri 06:44:58 AM 43.6453 -79.6408 217° Southwest 158 182 3,700 3,724 Climbing FlightAware ADS-B (CYYZ)
Fri 06:45:12 AM 43.6361 -79.6494 214° Southwest 162 186 4,600 2,600 Climbing FlightAware ADS-B (CYYZ)
Fri 06:45:28 AM 43.6255 -79.6586 212° Southwest 187 215 5,000 1,600 Climbing FlightAware ADS-B (CYYZ)
Fri 06:45:42 AM 43.6132 -79.6688 211° Southwest 214 246 5,400 2,200 Climbing FlightAware ADS-B (CYYZ)
Fri 06:45:58 AM 43.5999 -79.6799 212° Southwest 230 265 6,100 3,000 Climbing FlightAware ADS-B (CYYZ)
Fri 06:46:08 AM 43.5899 -79.6879 205° Southwest 242 278 6,700 2,800 Climbing FlightAware ADS-B (ETHL)
Fri 06:46:13 AM 43.5850 -79.6904 201° Southwest 247 284 6,800 3,158 Climbing FlightAware ADS-B (CYYZ)
Fri 06:46:27 AM 43.5680 -79.6963 191° South 258 297 7,700 3,333 Climbing FlightAware ADS-B (CYYZ)
Fri 06:46:31 AM 43.5646 -79.6968 188° South 261 300 7,800 3,375 Climbing FlightAware ADS-B (ETHL)
Fri 06:46:43 AM 43.5498 -79.6988 186° South 262 302 8,600 5,250 Climbing FlightAware ADS-B (CYYZ)
Fri 06:46:47 AM 43.5445 -79.6995 185° South 260 299 9,200 4,400 Climbing FlightAware ADS-B (ETHL)
Fri 06:46:58 AM 43.5320 -79.7010 185° South 257 296 9,700 3,200 Climbing FlightAware ADS-B (CYYZ)
Fri 06:47:02 AM 43.5357 -79.7006 185° South 257 296 10,000 2,690 Climbing FlightAware ADS-B (CYKF)
Fri 06:47:27 AM 43.4961 -79.7051 185° South 275 316 11,000 2,053 Climbing FlightAware ADS-B (CYYZ)
Fri 06:47:40 AM 43.4834 -79.7065 185° South 298 343 11,300 2,323 Climbing FlightAware ADS-B (ETHL)
Fri 06:47:58 AM 43.4542 -79.7096 184° South 304 350 12,200 3,871 Climbing FlightAware ADS-B (CYYZ)
Fri 06:48:11 AM 43.4391 -79.7110 184° South 295 339 13,300 4,400 Climbing FlightAware ADS-B (ETHL)
Fri 06:48:28 AM 43.4134 -79.7135 185° South 291 335 14,400 2,625 Climbing FlightAware ADS-B (CYYZ)
Fri 06:48:43 AM 43.3912 -79.7160 185° South 313 360 14,700 1,600 Climbing FlightAware ADS-B (CZBA)
Fri 06:48:58 AM 43.3703 -79.7184 185° South 328 377 15,200 2,438 Climbing FlightAware ADS-B (CYYZ)
Fri 06:49:15 AM 43.3428 -79.7212 184° South 334 384 16,000 2,800 Climbing FlightAware ADS-B (CZBA)
Fri 06:49:28 AM 43.3240 -79.7232 185° South 338 389 16,600 3,000 Climbing FlightAware ADS-B (CYYZ)
Fri 06:49:49 AM 43.2912 -79.7267 185° South 340 391 17,700 3,200 Climbing FlightAware ADS-B
Fri 06:49:58 AM 43.2769 -79.7282 185° South 342 394 18,200 2,813 Climbing FlightAware ADS-B (CYYZ)
Fri 06:50:21 AM 43.2406 -79.7321 184° South 348 400 19,200 2,800 Climbing FlightAware ADS-B (ETHL)
Fri 06:50:28 AM 43.2290 -79.7333 185° South 349 402 19,600 2,667 Climbing FlightAware ADS-B (CYYZ)
Fri 06:50:57 AM 43.1846 -79.7381 185° South 360 414 20,800 2,400 Climbing FlightAware ADS-B (CZBA)
Fri 06:50:58 AM 43.1798 -79.7386 185° South 360 414 20,800 2,571 Level FlightAware ADS-B (CYYZ)
Fri 06:51:04 AM 43.1710 -79.7396 185° South 364 419 21,100 2,200 Climbing FlightAware ADS-B
Fri 06:51:28 AM 43.1295 -79.7439 185° South 371 427 21,900 2,000 Climbing FlightAware ADS-B (CYYZ)
Fri 06:51:40 AM 43.1080 -79.7462 184° South 375 432 22,300 2,200 Climbing FlightAware ADS-B (ETHL)
Fri 06:51:58 AM 43.0770 -79.7495 185° South 378 435 23,000 2,516 Climbing FlightAware ADS-B (CYYZ)
Fri 06:52:11 AM 43.0532 -79.7520 184° South 380 437 23,600 2,400 Climbing FlightAware ADS-B (CZBA)
Fri 06:52:28 AM 43.0252 -79.7549 185° South 380 437 24,200 2,400 Climbing FlightAware ADS-B (CYYZ)
Fri 06:52:41 AM 43.0034 -79.7572 184° South 381 438 24,800 2,400 Climbing FlightAware ADS-B (ETHL)
Fri 06:52:58 AM 42.9722 -79.7618 189° South 377 434 25,400 1,895 Climbing FlightAware ADS-B (CYYZ)
Fri 06:53:19 AM 42.9406 -79.7685 189° South 379 436 26,000 1,655 Climbing FlightAware ADS-B (ETHL)
Fri 06:53:27 AM 42.9208 -79.7728 190° South 381 438 26,200 1,161 Climbing FlightAware ADS-B (CYYZ)
Fri 06:53:50 AM 42.8803 -79.7817 189° South 393 452 26,600 968 Climbing FlightAware ADS-B (ETHL)
Fri 06:53:58 AM 42.8693 -79.7841 190° South 396 456 26,700 632 Climbing FlightAware ADS-B (CYYZ)
Fri 06:54:28 AM 42.8128 -79.7962 189° South 401 461 27,000 585 Climbing FlightAware ADS-B (CYYZ)
Fri 06:54:39 AM 42.7926 -79.8005 189° South 402 463 27,100 1,714 Climbing FlightAware ADS-B (ETHL)
Fri 06:55:03 AM 42.7485 -79.8098 189° South 392 451 28,000 2,571 Climbing FlightAware ADS-B (CYYZ)
Fri 06:55:21 AM 42.7312 -79.8136 189° South 386 444 28,900 3,000 Climbing FlightAware ADS-B (ETHL)
Fri 06:55:33 AM 42.6974 -79.8208 190° South 379 436 29,500 3,077 Climbing FlightAware ADS-B (CYYZ)
Fri 06:56:00 AM 42.6595 -79.8290 189° South 372 428 30,900 3,000 Climbing FlightAware ADS-B (ETHL)
Fri 06:56:03 AM 42.6449 -79.8321 190° South 366 421 31,000 2,000 Climbing FlightAware ADS-B (CYYZ)
Fri 06:56:33 AM 42.5952 -79.8431 190° South 360 414 32,000 1,224 Climbing FlightAware ADS-B (CYYZ)
Fri 06:56:52 AM 42.5678 -79.8491 189° South 362 417 32,000  Level FlightAware ADS-B (CYKF)
Fri 06:57:13 AM 42.5295 -79.8573 189° South 362 417 32,000  Level FlightAware ADS-B (CYYZ)
Fri 06:57:42 AM 42.4796 -79.8678 189° South 365 420 32,000  Level FlightAware ADS-B (CYYZ)
Fri 06:58:00 AM 42.4771 -79.8684 189° South 375 432 32,000  Level FlightAware ADS-B (CYKF)
Fri 06:58:12 AM 42.4295 -79.8785 189° South 379 436 32,000  Level FlightAware ADS-B (CYYZ)
Fri 06:58:43 AM 42.3752 -79.8900 189° South 385 443 32,000  Level FlightAware ADS-B (CYYZ)
Fri 06:59:13 AM 42.3230 -79.9010 189° South 386 444 32,000  Level FlightAware ADS-B (CYYZ)
Fri 06:59:42 AM 42.2702 -79.9121 189° South 386 444 32,000  Level FlightAware ADS-B (CYYZ)
Fri 07:00:13 AM 42.2171 -79.9233 189° South 386 444 32,000  Level FlightAware ADS-B (CYYZ)
Fri 07:00:43 AM 42.1642 -79.9344 189° South 387 445 32,000  Level FlightAware ADS-B (CYYZ)
Fri 07:00:55 AM 42.2982 -79.9062 189° South 388 447 32,000  Level FlightAware ADS-B (CYKF)
Fri 07:01:12 AM 42.1108 -79.9460 190° South 387 445 32,000  Level FlightAware ADS-B (CYYZ)
Fri 07:01:43 AM 42.0575 -79.9572 189° South 388 447 32,000  Level FlightAware ADS-B (CYYZ)
Fri 07:01:59 AM 42.2982 -79.9062 189° South 388 447 32,000  Level FlightAware ADS-B (CYKF)
Fri 07:02:13 AM 42.0047 -79.9684 190° South 387 445 32,000  Level FlightAware ADS-B (CYYZ)
Fri 07:02:42 AM 41.9511 -79.9798 189° South 384 442 32,000  Level FlightAware ADS-B (CYYZ)
Fri 07:03:13 AM 41.8981 -79.9908 189° South 385 443 32,000  Level FlightAware ADS-B (CYYZ)
Fri 07:03:43 AM 41.8460 -80.0016 189° South 385 443 32,000  Level FlightAware ADS-B (CYYZ)
Fri 07:04:13 AM 41.7924 -80.0126 189° South 386 444 32,000  Level FlightAware ADS-B (CYYZ)
Fri 07:04:42 AM 41.7399 -80.0235 189° South 386 444 32,000  Level FlightAware ADS-B (CYYZ)
Fri 07:05:13 AM 41.6867 -80.0345 189° South 386 444 32,000  Level FlightAware ADS-B (CYYZ)
Fri 07:05:43 AM 41.6355 -80.0452 189° South 386 444 32,000  Level FlightAware ADS-B (CYYZ)
Fri 07:06:13 AM 41.5810 -80.0566 189° South 385 443 32,000  Level FlightAware ADS-B (CYYZ)
Fri 07:06:42 AM 41.5294 -80.0674 190° South 382 440 32,000  Level FlightAware ADS-B (CYYZ)
Fri 07:07:12 AM 41.4759 -80.0785 190° South 381 438 32,000  Level FlightAware ADS-B (CYYZ)
Fri 07:07:43 AM 41.4231 -80.0894 189° South 381 438 32,000  Level FlightAware ADS-B (CYYZ)
Fri 07:08:12 AM 41.3725 -80.0998 189° South 380 437 32,000  Level FlightAware ADS-B (CYYZ)
Fri 07:08:43 AM 41.3190 -80.1108 189° South 379 436 32,000  Level FlightAware ADS-B (CYYZ)
Fri 07:09:12 AM 41.2687 -80.1211 189° South 378 435 32,000  Level FlightAware ADS-B (CYYZ)
Fri 07:10:12 AM 41.1640 -80.1426 189° South 375 432 32,000  Level FlightAware ADS-B (CYYZ)
Fri 07:11:13 AM 41.0623 -80.1633 189° South 372 428 32,000  Level FlightAware ADS-B (CYYZ)
Fri 07:11:43 AM 41.0105 -80.1738 189° South 369 425 32,000  Level FlightAware ADS-B (CYYZ)
Fri 07:12:43 AM 40.9122 -80.1940 189° South 365 420 32,000  Level FlightAware ADS-B (CYYZ)
Fri 07:13:12 AM 40.8923 -80.1981 189° South 367 422 32,000  Level FlightAware ADS-B (CYYZ)
Fri 07:13:30 AM 40.8450 -80.2074 189° South 368 423 32,000  Level FlightAware ADS-B (CYYZ)
Fri 07:16:18 AM 40.4801 -80.1880 177° South 387 445 32,000  Level FlightAware ADS-B
Fri 07:17:05 AM 40.3944 -80.1820 177° South 387 445 32,000  Level FlightAware ADS-B
Fri 07:17:47 AM 40.3228 -80.1771 177° South 387 445 32,000  Level FlightAware ADS-B
Fri 07:18:18 AM 40.2645 -80.1732 177° South 386 444 32,000  Level FlightAware ADS-B
Fri 07:18:54 AM 40.2061 -80.1692 177° South 385 443 32,000  Level FlightAware ADS-B
Fri 07:19:47 AM 40.1070 -80.1627 177° South 386 444 32,000  Level FlightAware ADS-B
Fri 07:20:24 AM 40.0416 -80.1582 177° South 386 444 32,000  Level FlightAware ADS-B
Fri 07:21:21 AM 39.9393 -80.1513 177° South 387 445 32,000  Level FlightAware ADS-B
Fri 07:22:13 AM 39.9178 -80.1489 177° South 385 443 32,000  Level Cleveland Center
Fri 07:23:15 AM 39.8106 -80.1417 177° South 388 447 32,000  Level Cleveland Center
Fri 07:24:16 AM 39.6811 -80.1333 177° South 388 447 32,000  Level Cleveland Center
Fri 07:25:18 AM 39.5736 -80.1250 177° South 388 447 32,000  Level Cleveland Center
Fri 07:26:19 AM 39.4664 -80.1197 178° South 387 445 32,000  Level Cleveland Center
Fri 07:27:21 AM 39.3589 -80.1125 177° South 387 445 32,000  Level Cleveland Center
Fri 07:28:23 AM 39.2511 -80.1061 177° South 387 445 32,000  Level Cleveland Center
Fri 07:29:24 AM 39.1433 -80.0986 177° South 388 447 32,000  Level Cleveland Center
Fri 07:30:26 AM 39.0350 -80.0908 177° South 389 448 32,000  Level Cleveland Center
Fri 07:31:28 AM 38.9253 -80.0867 178° South 394 453 32,000  Level Cleveland Center
Fri 07:32:38 AM 38.7961 -80.1358 197° South 389 448 32,000  Level Washington Center
Fri 07:33:36 AM 38.6950 -80.1697 195° South 384 442 32,000  Level Washington Center
Fri 07:34:37 AM 38.5933 -80.2058 196° South 384 442 32,000  Level Washington Center
Fri 07:35:38 AM 38.4942 -80.2394 195° South 384 442 32,000  Level Washington Center
Fri 07:36:38 AM 38.4033 -80.2681 194° South 384 442 32,000  Level Washington Center
Fri 07:37:36 AM 38.3036 -80.3069 197° South 384 442 32,000  Level Washington Center
Fri 07:38:37 AM 38.2022 -80.3428 196° South 384 442 32,000  Level Washington Center
Fri 07:39:38 AM 38.0903 -80.3778 194° South 384 442 32,000  Level Washington Center
Fri 07:40:36 AM 37.9908 -80.4136 196° South 384 442 32,000  Level Washington Center
Fri 07:41:37 AM 37.8872 -80.4492 195° South 384 442 32,000  Level Washington Center
Fri 07:42:38 AM 37.7878 -80.4847 196° South 384 442 32,000  Level Washington Center
Fri 07:43:38 AM 37.6969 -80.5131 194° South 384 442 32,000  Level Washington Center
Fri 07:44:36 AM 37.5908 -80.5508 196° South 384 442 32,000 604 Level Washington Center
Fri 07:46:07 AM 37.4322 -80.5997 194° South 397 457 33,500 795 Climbing Atlanta Center
Fri 07:47:07 AM 37.3308 -80.6328 195° South 392 451 34,000 250 Climbing Atlanta Center
Fri 07:48:07 AM 37.2256 -80.6686 195° South 392 451 34,000 400 Level Atlanta Center
Fri 07:49:07 AM 37.1142 -80.7072 195° South 392 451 34,800 500 Climbing Atlanta Center
Fri 07:50:07 AM 37.0081 -80.7222 186° South 392 451 35,000 100 Climbing Atlanta Center
Fri 07:51:07 AM 36.9000 -80.7344 185° South 392 451 35,000  Level Atlanta Center
Fri 07:52:07 AM 36.7919 -80.7442 184° South 387 445 35,000  Level Atlanta Center
Fri 07:53:07 AM 36.6983 -80.7533 184° South 387 445 35,000  Level Atlanta Center
Fri 07:54:07 AM 36.5881 -80.7656 185° South 387 445 35,000 100 Level Atlanta Center
Fri 07:55:07 AM 36.4800 -80.7778 185° South 387 445 35,200 500 Climbing Atlanta Center
Fri 07:56:07 AM 36.3700 -80.7925 186° South 392 451 36,000 400 Climbing Atlanta Center
Fri 07:57:07 AM 36.2617 -80.8044 185° South 392 451 36,000  Level Atlanta Center
Fri 07:58:07 AM 36.1536 -80.8142 184° South 392 451 36,000  Level Atlanta Center
Fri 07:59:07 AM 36.0433 -80.8261 185° South 397 457 36,000  Level Atlanta Center
Fri 08:00:07 AM 35.9331 -80.8381 185° South 402 463 36,000  Level Atlanta Center
Fri 08:01:07 AM 35.8208 -80.8503 185° South 407 468 36,000  Level Atlanta Center
Fri 08:02:07 AM 35.7106 -80.8622 185° South 407 468 36,000  Level Atlanta Center
Fri 08:03:07 AM 35.5981 -80.8717 184° South 407 468 36,000  Level Atlanta Center
Fri 08:04:07 AM 35.4858 -80.8864 186° South 407 468 36,000  Level Atlanta Center
Fri 08:05:07 AM 35.3608 -80.8986 185° South 407 468 36,000  Level Atlanta Center
Fri 08:06:07 AM 35.2486 -80.9131 186° South 407 468 36,000  Level Atlanta Center
Fri 08:07:46 AM 35.0747 -80.9294 184° South 398 458 36,000  Level Jacksonville Center
Fri 08:14:02 AM 34.3410 -81.0046 185° South 417 480 36,000  Level FlightAware ADS-B
Fri 08:14:32 AM 34.2845 -81.0103 185° South 417 480 36,000  Level FlightAware ADS-B
Fri 08:15:18 AM 34.1989 -81.0286 197° South 402 463 36,000  Level FlightAware ADS-B
Fri 08:16:00 AM 34.1260 -81.0599 200° South 396 456 36,000  Level FlightAware ADS-B
Fri 08:16:33 AM 34.0690 -81.0845 200° South 397 457 36,000  Level FlightAware ADS-B
Fri 08:17:05 AM 34.0130 -81.1086 200° South 398 458 36,000  Level FlightAware ADS-B
Fri 08:17:48 AM 33.9381 -81.1406 200° South 399 459 36,000  Level FlightAware ADS-B
Fri 08:18:19 AM 33.8876 -81.1622 200° South 399 459 36,000  Level FlightAware ADS-B
Fri 08:19:45 AM 33.7351 -81.2271 200° South 399 459 36,000  Level FlightAware ADS-B
Fri 08:20:19 AM 33.6758 -81.2524 200° South 399 459 36,000  Level FlightAware ADS-B
Fri 08:21:46 AM 33.5303 -81.3178 200° South 405 466 36,000  Level Jacksonville Center
Fri 08:22:46 AM 33.4472 -81.3517 199° South 405 466 36,000  Level Jacksonville Center
Fri 08:23:46 AM 33.3331 -81.3983 199° South 400 460 36,000  Level Jacksonville Center
Fri 08:24:46 AM 33.2186 -81.4475 200° South 400 460 36,000 -50 Level Jacksonville Center
Fri 08:25:46 AM 33.1150 -81.4914 200° South 400 460 35,900  Descending Jacksonville Center
Fri 08:26:46 AM 33.0111 -81.5350 199° South 406 467 36,000 50 Climbing Jacksonville Center
Fri 08:27:46 AM 32.9072 -81.5811 200° South 406 467 36,000  Level Jacksonville Center
Fri 08:28:46 AM 32.8011 -81.6222 198° South 406 467 36,000  Level Jacksonville Center
Fri 08:29:46 AM 32.6950 -81.6681 200° South 406 467 36,000  Level Jacksonville Center
Fri 08:30:46 AM 32.6036 -81.7064 199° South 406 467 36,000  Level Jacksonville Center
Fri 08:31:46 AM 32.4872 -81.7547 199° South 406 467 36,000  Level Jacksonville Center
Fri 08:32:46 AM 32.3850 -81.7756 190° South 406 467 36,000  Level Jacksonville Center
Fri 08:33:46 AM 32.2600 -81.8042 191° South 411 473 36,000  Level Jacksonville Center
Fri 08:34:46 AM 32.1475 -81.8275 190° South 416 479 36,000  Level Jacksonville Center
Fri 08:35:46 AM 32.0453 -81.8483 190° South 409 471 36,000  Level Jacksonville Center
Fri 08:36:46 AM 31.9203 -81.8769 191° South 415 478 36,000  Level Jacksonville Center
Fri 08:37:46 AM 31.8203 -81.8975 190° South 415 478 36,000  Level Jacksonville Center
Fri 08:38:46 AM 31.6953 -81.9256 191° South 415 478 36,000  Level Jacksonville Center
Fri 08:39:46 AM 31.5847 -81.9486 190° South 410 472 36,000  Level Jacksonville Center
Fri 08:40:46 AM 31.4806 -81.9717 191° South 410 472 36,000  Level Jacksonville Center
Fri 08:41:46 AM 31.3678 -81.9922 189° South 410 472 36,000 -50 Level Jacksonville Center
Fri 08:42:46 AM 31.2469 -82.0203 191° South 410 472 35,900  Descending Jacksonville Center
Fri 08:43:46 AM 31.1364 -82.0406 189° South 410 472 36,000  Climbing Jacksonville Center
Fri 08:44:46 AM 31.0281 -82.0658 191° South 410 472 35,900  Descending Jacksonville Center
Fri 08:50:40 AM 30.3592 -82.2010 190° South 416 479 36,000 -78 Climbing FlightAware ADS-B
Fri 08:51:11 AM 30.3078 -82.2117 190° South 419 482 35,400 -968 Descending FlightAware ADS-B
Fri 08:51:42 AM 30.2409 -82.2256 190° South 424 488 35,000 -943 Descending FlightAware ADS-B
Fri 08:52:21 AM 30.1665 -82.2409 190° South 430 495 34,300 -1,011 Descending FlightAware ADS-B
Fri 08:53:11 AM 30.0684 -82.2609 190° South 431 496 33,500 -889 Descending FlightAware ADS-B
Fri 08:53:42 AM 30.0055 -82.2737 190° South 431 496 33,100 -885 Descending FlightAware ADS-B
Fri 08:54:12 AM 29.9474 -82.2856 190° South 431 496 32,600 -943 Descending FlightAware ADS-B
Fri 08:54:52 AM 29.8692 -82.3017 190° South 434 499 32,000 -1,029 Descending FlightAware ADS-B
Fri 08:55:22 AM 29.8078 -82.3142 190° South 435 501 31,400 -1,800 Descending FlightAware ADS-B
Fri 08:56:02 AM 29.7350 -82.3288 190° South 427 491 29,900 -2,314 Descending FlightAware ADS-B
Fri 08:56:32 AM 29.6722 -82.3416 190° South 422 486 28,700 -2,416 Descending FlightAware ADS-B
Fri 08:57:19 AM 29.5867 -82.3556 180° South 420 483 26,800 -2,000 Descending FlightAware ADS-B
Fri 08:57:53 AM 29.5154 -82.3503 174° South 412 474 26,000 -1,622 Descending FlightAware ADS-B
Fri 08:58:33 AM 29.4453 -82.3420 174° South 400 460 24,800 -1,820 Descending FlightAware ADS-B
Fri 08:59:22 AM 29.3527 -82.3314 174° South 390 449 23,300 -1,823 Descending FlightAware ADS-B
Fri 08:59:52 AM 29.3078 -82.3260 174° South 382 440 22,400 -1,800 Descending FlightAware ADS-B
Fri 09:00:22 AM 29.2477 -82.3186 174° South 376 433 21,500 -1,739 Descending FlightAware ADS-B
Fri 09:01:01 AM 29.1794 -82.3101 174° South 368 423 20,400 -1,683 Descending FlightAware ADS-B
Fri 09:01:44 AM 29.1130 -82.3020 174° South 359 413 19,200 -1,725 Descending FlightAware ADS-B
Fri 09:02:21 AM 29.0482 -82.2944 174° South 353 406 18,100 -1,739 Descending FlightAware ADS-B
Fri 09:02:53 AM 28.9953 -82.2884 174° South 351 404 17,200 -1,645 Descending FlightAware ADS-B
Fri 09:03:23 AM 28.9613 -82.2844 174° South 347 399 16,400 -1,629 Descending FlightAware ADS-B
Fri 09:04:03 AM 28.8841 -82.2752 174° South 343 395 15,300 -1,528 Descending FlightAware ADS-B
Fri 09:05:09 AM 28.7831 -82.2633 174° South 311 358 13,700 -1,421 Descending FlightAware ADS-B
Fri 09:05:57 AM 28.7193 -82.2574 179° South 293 337 12,600 -1,611 Descending FlightAware ADS-B
Fri 09:06:57 AM 28.6353 -82.2565 182° South 291 335 10,800 -1,705 Descending FlightAware ADS-B
Fri 09:07:25 AM 28.6048 -82.2777 236° Southwest 285 328 10,100 -1,277 Descending FlightAware ADS-B
Fri 09:07:44 AM 28.5936 -82.3034 244° Southwest 283 326 9,800 -168 Descending FlightAware ADS-B
Fri 09:09:12 AM 28.5449 -82.4204 245° Southwest 280 322 9,800 -156 Level FlightAware ADS-B
Fri 09:10:18 AM 28.5167 -82.5000 245° Southwest 276 318 9,400 -905 Descending Tampa TRACON
Fri 09:11:18 AM 28.4667 -82.5667 230° Southwest 265 305 7,900 -1,461 Descending Tampa TRACON
Fri 09:12:13 AM 28.4167 -82.6167 221° Southwest 266 306 6,600 -1,368 Descending Tampa TRACON
Fri 09:13:12 AM 28.3667 -82.6833 230° Southwest 263 303 5,300 -1,095 Descending Tampa TRACON
Fri 09:14:19 AM 28.3000 -82.7000 192° South 228 262 4,300 -898 Descending Tampa TRACON
Fri 09:15:19 AM 28.2333 -82.7000 180° South 217 250 3,400 -947 Descending Tampa TRACON
Fri 09:16:13 AM 28.1833 -82.7000 180° South 206 237 2,500 -474 Descending Tampa TRACON
Fri 09:17:13 AM 28.1333 -82.6833 164° South 199 229 2,500 -158 Level Tampa TRACON
Fri 09:18:07 AM 28.0833 -82.6833 180° South 170 196 2,200 -316 Descending Tampa TRACON
Fri 09:19:07 AM 28.0500 -82.6667 156° South 126 145 1,900 -300 Descending Tampa TRACON
Fri 09:20:07 AM 28.0167 -82.6667 180° South 123 142 1,600 -364 Descending Tampa TRACON
Fri 09:21:19 AM 27.9833 -82.6833 204° Southwest 130 150 1,100 -476 Descending Tampa TRACON
Fri 09:22:13 AM 27.9500 -82.7000 204° Southwest 136 157 600 -556 Descending Tampa TRACON
Fri 09:24:00 AM 27.9100 -82.6875 180° South  Level Estimated
Fri 09:31:00 AM 27.9100 -82.6875 180° South  Level Estimated

Login

Don't have an account? Register now (free) for customized features, flight alerts, and more!